{"data":{"norad_id":62891,"intl_designator":"2025-024N","name":"STARLINK-11435 [DTC]","alt_names":[],"object_type":"PAYLOAD","status":"ACTIVE","operator":null,"country":"US","launch_date":"2025-02-04","launch_site_code":"AFETR","launch_vehicle":null,"mission":null,"orbit_class":"UNKNOWN","rcs_meters":null,"size_class":null,"mass_kg":null,"dimensions":null,"purposes":["comms"],"wikipedia_slug":null,"has_3d_model":false,"image_url":null,"decayed_at":null,"tle_current":{"epoch":"2026-05-25T04:30:13.784256Z","epoch_age_seconds":58186,"freshness":"FRESH","line1":"1 62891U 25024N   26145.18765954  .00151291  00000+0  11592-2 0  9990","line2":"2 62891  43.0002  80.7132 0001803 256.6404 103.4262 15.70880018 75498","mean_motion":15.70880018,"eccentricity":0.0001803,"inclination_deg":43.0002,"raan_deg":80.7132,"arg_perigee_deg":256.6404,"mean_anomaly_deg":103.4262,"bstar":0.0011592,"rev_number":7549,"period_min":91.668363178581,"perigee_km":355.16645152462,"apogee_km":357.59491860185,"semimajor_km":6734.5176850632,"source":"CELESTRAK","updated_at":"2026-05-25T13:38:19.790837Z"}}}